Theta_e
328 328 340 344 345 347 347 346 341 340 341 340 339 341 343 343 346 350 345 346 345 346 340 333 336 338 340 343 339 330 337 341 343 343 342 341 339 336 334 332 334 334 338 341 341 336 335 335 329
328 337 338 338 347 351 349 343 345 342 341 341 340 340 341 344 344 345 343 345 346 346 329 333 333 334 337 339 341 341 331 338 340 340 340 339 338 336 335 335 334 334 337 338 339 339 339 337 336
325 338 340 343 345 349 345 344 343 340 343 342 340 341 343 342 341 343 342 343 344 343 328 337 338 337 337 338 340 341 341 337 334 337 340 340 339 338 337 335 334 334 337 338 340 340 340 338 336
331 338 337 344 347 345 344 343 337 336 341 341 341 341 341 344 345 345 343 340 344 342 327 326 328 332 335 338 339 339 339 340 340 339 338 334 334 338 339 336 334 334 337 340 341 341 340 339 337
332 335 339 340 345 342 341 343 339 339 343 342 342 344 343 344 343 342 341 338 342 340 334 328 327 328 329 329 328 327 328 328 329 331 332 336 335 334 335 336 336 337 339 338 338 338 337 338 337
333 335 340 341 340 340 339 341 341 340 342 342 342 343 344 343 343 343 341 339 339 340 338 334 327 323 319 318 318 317 317 317 317 317 318 323 328 331 333 334 336 334 334 333 332 336 335 333 332
334 338 339 340 341 340 340 341 340 341 343 342 342 345 343 341 342 341 340 340 338 340 340 332 332 331 323 323 324 321 318 317 317 317 318 323 326 325 323 323 324 329 334 333 330 329 333 336 335
333 337 337 341 340 340 339 343 341 342 340 341 343 344 344 342 342 341 341 339 337 333 336 336 334 331 329 328 327 327 324 321 319 319 318 322 326 326 326 325 325 323 318 320 329 332 334 334 331
334 337 339 341 339 340 339 342 344 344 346 346 345 344 344 343 342 341 339 336 333 331 329 328 328 328 328 329 328 328 328 327 324 320 319 324 323 324 325 323 322 321 319 317 316 318 326 331 332
339 340 339 339 339 340 339 342 342 344 345 344 344 344 344 343 342 340 339 333 332 332 331 331 331 329 328 329 329 328 327 327 326 324 320 318 318 322 322 321 320 321 321 321 321 324 325 324 331
336 340 337 338 338 338 339 340 342 342 345 344 343 343 343 342 342 338 332 332 333 333 332 332 328 325 328 329 329 328 327 325 324 323 321 316 315 318 318 317 318 319 320 321 321 322 322 324 328
339 337 338 338 338 339 339 341 345 344 343 342 341 341 340 338 336 335 333 333 332 331 332 332 332 332 327 327 328 328 325 324 322 320 319 317 312 314 311 313 314 315 316 317 319 320 321 322 322
336 337 337 337 339 339 340 341 343 343 342 341 341 340 338 335 334 332 332 331 331 332 332 333 332 330 330 329 328 326 325 322 320 318 317 315 313 314 312 312 314 314 314 316 317 317 318 319 320
338 337 338 337 339 339 342 342 342 341 341 341 340 339 335 333 331 332 333 334 334 333 333 331 331 330 330 328 326 325 324 320 318 316 315 315 312 313 312 312 313 313 314 314 316 317 317 318 317
338 337 338 340 339 341 340 342 344 341 340 340 339 337 333 332 332 333 335 335 335 334 332 331 330 329 327 326 323 322 321 318 316 315 314 313 311 310 306 311 313 313 312 312 314 314 313 312 310
337 338 341 341 340 340 340 347 343 340 339 337 336 334 334 333 333 334 334 334 335 334 333 331 329 327 324 323 320 318 317 316 315 314 313 311 308 307 306 309 310 310 308 309 309 309 309 310 311
337 342 341 340 337 340 342 350 343 340 339 336 335 335 335 334 334 334 335 335 335 334 332 330 329 328 321 319 317 316 316 316 314 313 312 310 308 307 307 307 308 306 307 308 308 309 309 310 311
337 340 341 341 338 340 342 341 345 342 340 339 337 336 336 336 334 334 336 334 334 332 330 328 328 323 317 316 315 315 315 314 313 313 311 308 307 306 306 305 305 306 307 307 308 308 309 309 309
336 337 340 341 343 343 338 340 346 342 341 341 340 337 337 338 335 336 335 333 332 330 328 326 324 319 312 314 314 315 314 314 313 312 310 308 306 306 305 305 306 306 307 307 307 308 308 308 309
334 336 335 338 340 339 335 335 340 344 342 340 340 338 339 338 335 337 334 333 331 329 327 324 321 316 307 315 315 314 314 314 312 310 309 307 306 306 305 305 305 306 306 307 306 307 307 307 308
335 336 336 332 339 339 337 334 336 344 344 342 340 339 338 337 336 337 335 333 331 328 325 323 320 314 310 314 315 314 314 313 311 310 308 307 306 306 305 305 306 306 306 306 307 308 307 308 307
334 334 334 331 331 332 336 340 341 343 348 344 341 340 339 338 337 337 336 332 330 327 324 322 318 313 314 312 314 312 312 312 310 308 308 307 307 306 307 306 306 307 308 306 306 306 306 307 308
330 330 329 330 330 332 333 336 341 342 349 345 342 341 340 339 337 338 336 332 330 326 324 320 317 315 315 314 312 312 311 311 310 310 309 309 307 307 308 307 308 307 307 307 307 307 306 307 307
328 328 329 331 331 332 338 341 343 351 348 346 343 341 339 339 338 337 335 331 328 325 323 318 317 315 315 315 314 311 311 310 310 310 310 309 309 308 309 308 307 308 307 306 306 307 307 305 307
327 329 329 332 335 343 341 343 345 344 346 346 344 341 340 339 337 335 332 330 327 325 320 316 316 316 315 315 312 310 310 310 310 310 310 310 310 310 309 309 309 307 308 307 306 308 307 306 306
328 329 333 339 345 342 341 344 346 344 341 343 344 340 340 339 336 334 332 329 327 324 318 316 316 316 315 314 312 311 309 310 311 310 309 310 310 308 309 308 308 308 308 307 307 308 306 306 307
331 332 332 340 340 338 340 345 346 345 341 342 343 341 340 337 336 333 331 328 325 321 317 315 316 315 315 314 313 310 309 309 311 310 310 309 309 310 309 307 309 308 308 306 306 307 306 307 306
332 334 337 338 342 340 340 342 351 346 345 342 343 342 339 335 334 332 329 326 323 319 315 315 315 315 315 313 312 312 310 309 310 310 309 309 309 310 308 307 308 307 309 308 306 306 307 306 306
332 333 336 340 338 340 344 348 340 344 345 342 343 341 338 336 333 330 328 325 321 317 315 315 315 315 315 313 313 311 311 309 311 309 309 308 309 308 308 309 308 308 308 307 306 306 306 306 306
330 333 335 339 339 341 341 343 340 343 343 342 341 338 336 334 332 329 327 323 319 316 315 315 315 315 315 313 313 311 311 310 310 310 310 310 308 309 308 308 308 306 305 305 306 306 306 306 307
Wind_Speed
6 6 9 10 5 5 3 11 13 8 12 29 31 25 25 25 12 10 9 5 12 10 5 14 13 12 11 11 11 12 11 8 5 2 2 0 1 2 3 2 2 4 5 5 7 7 8 7 9
5 5 4 13 2 2 7 4 15 10 12 24 28 26 25 22 22 16 11 8 17 14 15 18 16 13 12 11 11 11 10 9 6 2 3 1 1 3 6 6 7 8 8 8 10 11 12 11 9
4 5 5 5 2 7 5 20 20 26 23 24 17 21 16 18 20 15 13 14 18 16 15 17 15 15 14 13 12 10 9 9 8 7 6 5 4 4 4 8 11 11 11 12 13 14 15 13 12
3 7 6 6 7 17 20 18 34 13 10 25 22 18 20 13 10 12 10 17 17 17 17 17 15 15 15 15 14 13 11 10 9 8 6 6 9 7 7 8 10 13 14 15 16 17 15 15 15
11 11 8 12 20 19 14 29 38 15 19 16 28 20 22 18 17 13 12 13 16 15 21 19 17 16 17 17 17 16 14 13 11 9 7 4 6 8 11 10 12 12 14 15 17 18 17 17 17
16 20 4 6 16 16 12 22 17 20 26 28 28 24 21 15 14 14 13 14 13 13 16 21 19 18 21 21 20 19 18 16 15 14 11 8 7 8 11 12 15 18 23 24 22 20 20 19 20
16 10 2 6 17 15 12 30 21 11 21 18 24 20 21 15 14 14 14 14 14 13 13 19 19 16 16 19 19 18 18 18 17 15 14 13 13 18 14 13 14 13 16 19 24 26 24 24 23
21 13 17 10 12 12 18 24 25 17 14 14 24 14 18 16 15 16 16 14 17 21 18 12 15 17 16 15 19 20 20 18 17 15 11 8 11 14 13 13 18 20 17 18 20 24 26 29 31
18 7 8 20 11 9 21 17 19 16 22 23 26 25 22 18 17 18 21 17 15 14 12 14 12 10 10 12 15 16 16 17 18 18 15 9 8 7 13 11 19 21 19 18 17 20 21 26 29
8 8 14 16 14 15 19 15 18 19 20 21 22 20 20 17 17 19 19 20 19 14 11 11 12 13 13 10 11 10 11 13 18 23 23 13 12 11 13 11 10 13 14 17 17 13 16 19 21
13 6 8 20 21 18 14 9 42 7 14 17 19 20 18 15 17 21 17 14 12 11 9 10 11 8 11 11 7 9 13 14 14 18 26 20 10 11 12 8 11 10 12 12 15 14 13 17 16
10 28 3 17 15 16 13 12 19 16 20 17 17 17 16 16 16 13 14 14 13 11 11 9 9 8 8 7 8 9 11 14 14 15 20 24 16 18 15 12 8 15 12 13 15 14 19 22 23
5 10 14 10 14 16 15 14 14 15 16 17 18 16 16 15 15 15 14 13 12 11 9 8 6 11 11 11 11 10 11 12 12 13 18 23 16 19 18 14 14 11 13 13 15 13 20 19 21
21 8 13 9 13 10 15 15 11 14 17 18 18 17 16 16 15 14 12 11 11 11 9 8 7 10 8 9 12 9 12 11 11 12 16 17 18 18 16 12 14 15 15 13 18 18 20 22 22
11 10 10 10 10 10 17 9 12 16 17 18 17 17 17 15 14 12 12 10 8 8 9 11 9 9 9 12 10 11 13 10 11 10 14 20 16 20 18 10 17 18 17 14 17 22 26 25 22
9 8 5 19 7 11 12 8 13 18 17 18 18 18 18 15 14 12 11 9 8 7 7 6 3 6 10 15 10 9 12 7 9 10 14 20 24 22 18 13 17 21 16 14 16 20 23 21 21
10 8 20 19 31 18 10 5 19 18 17 18 18 18 18 16 14 11 10 8 6 6 4 2 8 11 11 14 10 7 8 7 10 10 13 26 26 22 20 13 19 16 17 18 18 20 21 23 21
15 11 9 22 19 25 14 7 18 20 18 19 19 20 20 20 18 13 12 10 6 4 3 5 8 11 12 11 7 6 7 9 11 12 18 26 27 28 19 18 19 15 18 18 19 20 20 23 19
11 6 16 23 27 34 5 8 20 24 20 21 22 22 21 21 22 17 13 9 6 2 4 3 9 13 12 11 9 8 8 9 10 13 19 22 24 26 24 22 23 21 17 19 20 20 24 24 25
21 19 14 5 12 6 5 12 15 24 24 24 21 22 25 23 25 22 16 11 5 3 3 6 9 14 13 9 11 8 8 7 7 15 13 18 20 20 23 20 19 20 20 18 21 22 22 22 22
17 18 12 19 10 8 9 15 14 23 27 23 22 20 27 26 25 24 16 12 10 4 2 5 9 12 12 9 7 7 3 6 8 10 18 19 18 17 24 19 17 20 19 19 20 20 21 20 22
17 17 13 18 17 13 5 13 19 19 18 19 24 22 25 26 23 23 18 14 10 6 3 3 9 8 10 9 6 9 9 8 13 11 16 19 19 22 17 21 20 20 19 22 21 19 18 17 20
15 14 18 17 17 19 16 11 6 14 17 20 23 26 27 27 26 21 18 14 10 8 4 2 7 7 9 9 10 6 8 9 11 13 15 16 20 19 17 20 19 19 21 20 17 18 20 17 18
16 18 14 12 15 13 8 2 7 10 21 19 23 26 32 28 24 23 20 14 10 7 6 3 3 7 6 6 5 11 10 10 12 13 13 14 15 17 17 19 19 19 22 23 21 17 18 20 17
19 13 9 11 10 3 2 9 7 28 16 21 21 32 32 30 26 25 19 14 12 9 5 3 4 5 5 2 8 9 8 9 11 13 13 14 14 16 19 19 20 20 20 21 21 17 18 18 18
13 14 11 9 9 12 18 8 6 12 6 20 24 34 32 29 30 23 18 17 13 10 6 4 6 5 3 2 3 7 10 10 9 13 15 13 16 14 17 19 19 21 20 21 19 18 18 17 14
16 17 18 16 16 16 4 4 5 16 4 16 30 31 32 33 28 21 18 15 12 9 7 8 6 6 4 5 4 7 9 11 12 13 15 17 16 15 16 20 20 19 21 25 20 17 19 19 16
19 13 11 7 16 13 12 6 6 19 12 11 23 27 24 34 26 21 17 14 11 11 10 8 7 6 4 3 4 5 8 9 11 12 13 15 15 18 19 18 21 18 20 23 24 17 18 19 17
14 13 12 10 4 11 5 3 5 4 13 11 20 21 23 24 22 19 17 14 11 10 9 8 7 5 2 1 4 5 5 8 9 10 12 13 15 17 19 18 21 20 21 23 24 16 17 17 18
17 11 15 9 7 10 13 5 6 6 9 15 18 22 22 21 20 19 17 15 12 10 10 9 8 5 3 2 3 6 6 6 7 9 11 12 15 16 17 18 18 21 23 21 22 21 18 16 18
Wind_Direction
252 348 21 334 13 360 325 59 98 59 90 89 76 74 70 58 43 89 111 93 86 77 3 64 51 46 43 39 40 44 58 77 90 122 173 89 332 217 202 234 243 283 281 269 267 257 251 247 239
262 279 279 74 307 88 228 179 128 170 100 91 91 87 67 68 86 96 84 77 94 64 50 52 50 47 45 42 40 42 46 52 59 29 341 324 260 207 202 220 234 238 247 250 258 260 263 263 269
259 177 145 112 251 253 133 82 45 351 52 62 81 67 58 88 78 94 85 82 80 60 58 61 54 55 56 50 46 45 42 40 35 27 15 359 340 311 268 242 236 245 252 251 252 257 259 263 257
246 228 188 146 192 224 71 90 90 277 23 130 107 78 76 81 97 91 83 106 82 76 51 57 56 56 56 54 49 44 37 33 25 13 343 336 329 334 316 293 274 281 283 280 272 267 263 258 257
240 260 253 195 190 59 71 117 123 201 94 67 89 99 93 85 98 106 83 89 85 74 46 55 63 67 68 68 64 58 53 48 43 37 25 334 281 280 277 262 259 266 267 270 273 268 265 268 258
257 252 217 126 85 77 78 82 138 143 84 107 94 99 97 102 103 105 99 96 88 89 69 57 67 70 73 65 56 51 45 41 39 36 31 31 14 328 291 294 277 272 259 265 263 266 265 259 264
258 273 32 321 89 66 63 82 73 347 109 123 116 106 108 110 107 105 103 94 87 105 90 65 71 57 59 54 41 33 32 32 27 28 28 27 14 358 333 330 318 287 277 274 268 264 262 265 260
254 288 281 97 91 93 84 77 116 182 89 101 128 126 115 124 116 110 106 94 99 97 101 85 82 63 46 28 33 18 16 19 19 16 14 28 1 344 319 340 305 299 293 280 271 266 265 263 260
270 269 305 110 110 137 93 99 91 96 77 74 78 108 123 125 124 122 116 104 97 97 100 106 101 77 56 40 34 21 12 355 354 354 351 3 312 337 300 317 308 315 309 291 286 275 273 269 265
11 50 284 124 130 91 92 114 128 109 106 100 102 116 127 134 140 135 134 121 113 104 93 102 85 47 32 39 21 12 357 1 344 336 338 336 333 350 305 298 319 313 308 317 323 304 297 283 279
5 189 82 98 100 99 111 126 96 312 127 129 127 134 141 162 162 129 119 116 117 113 97 54 58 87 80 27 17 356 355 343 345 336 328 341 350 329 293 310 303 314 324 304 289 283 285 274 283
165 232 164 105 107 118 100 92 75 99 105 123 129 137 143 143 125 121 127 120 106 102 91 77 76 45 28 31 11 352 352 346 344 345 324 331 351 332 334 322 330 337 316 313 310 288 285 265 261
242 133 107 123 130 113 135 109 104 107 121 128 134 142 148 126 130 118 109 110 115 105 90 77 61 68 2 355 10 354 329 351 344 340 322 332 356 329 343 345 356 336 322 303 298 300 288 270 263
150 133 141 158 114 146 104 120 118 131 135 139 148 152 138 135 132 120 114 109 113 108 91 72 34 358 21 14 9 357 325 359 341 346 338 328 352 326 332 7 358 329 294 298 313 288 281 274 270
217 178 157 153 160 133 157 158 138 155 153 155 154 152 145 146 143 139 131 120 116 101 120 95 37 16 14 348 3 0 329 358 344 354 321 318 346 331 346 17 348 300 309 325 297 295 295 298 299
180 203 174 355 255 168 201 178 144 166 164 162 163 157 156 155 153 143 130 127 112 100 62 359 37 19 7 338 359 349 324 348 346 342 328 333 343 339 351 9 322 312 326 327 325 330 330 327 322
231 132 79 328 304 297 141 156 163 181 178 172 173 169 167 163 144 140 142 138 113 112 115 42 332 354 0 340 7 354 358 354 0 341 319 338 346 348 349 4 320 347 352 345 336 334 336 335 325
237 58 183 189 244 268 193 184 161 174 192 185 186 181 182 168 156 155 140 127 122 113 71 345 336 357 7 344 16 13 16 8 12 332 338 345 351 353 352 358 358 3 356 349 340 337 340 342 339
280 239 207 188 199 234 198 213 162 168 198 210 190 191 180 161 159 155 154 134 125 84 10 6 346 359 10 356 9 33 23 7 18 342 346 350 355 357 6 9 12 356 357 347 347 343 342 342 348
271 278 265 103 147 201 260 239 189 171 192 208 201 197 170 166 159 157 156 150 168 86 40 353 1 359 11 39 6 49 15 7 10 352 349 355 5 6 1 9 8 3 359 353 350 347 348 352 348
246 265 282 278 155 207 252 262 252 179 178 201 213 195 169 170 165 156 153 156 165 137 82 18 358 4 20 52 17 66 35 351 357 4 352 5 14 11 14 17 7 3 358 347 348 344 348 341 354
243 248 251 273 287 276 289 256 269 167 175 191 208 178 173 172 166 158 154 157 155 148 117 357 1 27 12 36 35 25 39 21 359 8 0 11 3 12 8 11 8 5 5 350 355 343 341 348 344
256 265 266 264 259 267 262 269 12 178 188 194 203 192 177 171 168 162 159 158 151 144 154 319 5 32 39 11 31 47 50 36 6 8 11 355 14 3 351 354 352 357 354 349 342 345 352 351 348
264 253 253 275 274 266 341 58 289 216 198 192 194 166 164 169 164 156 158 150 153 168 175 122 37 52 57 53 358 26 34 25 28 18 11 2 354 3 347 349 360 359 355 0 355 345 349 353 346
249 247 246 245 243 277 277 317 233 259 190 188 185 157 160 158 154 157 153 155 167 163 155 128 112 84 79 64 6 31 45 27 19 19 357 4 352 -0 350 348 348 358 2 355 359 355 350 353 351
234 236 244 239 233 243 193 244 181 183 132 168 169 145 151 152 152 156 166 171 176 161 154 168 122 105 97 23 38 31 50 46 23 13 9 2 352 353 350 351 356 2 355 352 357 356 350 354 357
219 235 237 259 270 284 157 274 61 25 329 141 142 149 159 154 159 166 170 161 155 158 156 151 141 123 110 78 43 29 41 38 26 8 6 6 3 3 349 5 355 357 1 356 359 354 357 356 1
241 212 251 250 265 293 330 6 298 202 179 168 143 151 157 154 160 154 155 157 158 159 154 146 145 137 145 80 69 40 24 38 24 16 10 5 2 359 357 0 0 7 3 357 1 5 355 358 3
232 245 245 260 178 257 247 143 263 323 150 168 150 158 166 159 152 155 161 162 165 164 156 149 152 142 141 43 65 43 21 39 17 10 5 359 357 359 358 356 359 359 358 354 354 354 351 0 358
240 258 241 256 278 23 305 31 11 36 137 154 153 164 165 157 158 168 166 163 162 164 159 162 157 143 178 35 70 22 15 31 25 13 1 354 8 3 3 3 7 10 360 349 357 2 4 359 358